Location: Newark
(39.6867°N, 100.6772°W)
Time: 12:05:01
(UTC+00:00)

Transit 2A Rocket - All Passes

Search period start: 15 October 2019 00:00
Search period end: 25 October 2019 00:00
Orbit: 593 x 910 km, 66.7° (Epoch: 14 October)

Date Brightness Start Highest point End Pass type
(mag) Time Alt. Az. Time Alt. Az. Time Alt. Az.
15 Oct - 11:56:25 10° S 12:01:18 39° ESE 12:05:49 10° NE visible
15 Oct - 13:39:36 10° WSW 13:43:54 27° NW 13:47:58 10° N daylight
15 Oct - 20:41:04 10° N 20:44:27 22° NE 20:47:51 10° ESE daylight
15 Oct - 22:23:07 10° NW 22:27:03 35° WSW 22:31:02 10° S daylight
16 Oct - 11:14:58 10° SSE 11:18:56 22° ESE 11:22:40 10° ENE visible
16 Oct - 12:56:17 10° SW 13:01:15 45° WNW 13:05:50 10° NNE daylight
16 Oct - 19:59:33 10° NNE 20:01:38 13° NE 20:03:41 10° ENE daylight
16 Oct - 21:40:21 10° NNW 21:44:38 71° WSW 21:49:00 10° SSE daylight
17 Oct - 10:34:53 10° SE 10:36:39 12° ESE 10:38:23 10° E visible
17 Oct - 12:13:26 10° SSW 12:18:41 80° WNW 12:23:29 10° NNE visible
17 Oct - 14:00:06 10° WNW 14:01:54 12° NW 14:03:39 10° NNW daylight
17 Oct - 20:57:52 10° NNW 21:02:08 59° ENE 21:06:27 10° SE daylight
17 Oct - 22:42:35 10° W 22:44:06 12° WSW 22:45:40 10° SW daylight
18 Oct - 11:31:03 10° SSW 11:36:12 57° ESE 11:40:56 10° NE visible
18 Oct - 13:15:26 10° W 13:19:01 19° NW 13:22:25 10° N daylight
18 Oct - 20:15:39 10° N 20:19:31 31° NE 20:23:25 10° ESE daylight
18 Oct - 21:58:27 10° WNW 22:01:51 23° WSW 22:05:19 10° SSW daylight
19 Oct - 10:49:10 10° S 10:53:47 31° ESE 10:58:03 10° NE visible
19 Oct - 12:31:44 10° WSW 12:36:17 31° NW 12:40:31 10° N visible
19 Oct - 19:33:44 10° N 19:36:46 18° NE 19:39:50 10° E daylight
19 Oct - 21:15:24 10° NW 21:19:30 44° WSW 21:23:42 10° S daylight
20 Oct - 10:08:03 10° SSE 10:11:26 18° ESE 10:14:40 10° ENE visible
20 Oct - 11:48:35 10° SW 11:53:39 54° WNW 11:58:18 10° NNE visible
20 Oct - 18:52:43 10° NNE 18:53:54 11° NE 18:55:05 10° ENE daylight
20 Oct - 20:32:44 10° NNW 20:37:03 89° WSW 20:41:28 10° SSE daylight
21 Oct - 11:05:54 10° SSW 11:11:07 85° ESE 11:15:53 10° NNE visible
21 Oct - 12:51:40 10° WNW 12:54:11 14° NW 12:56:37 10° NNW daylight
21 Oct - 19:50:21 10° NNW 19:54:31 47° ENE 19:58:45 10° SE daylight
21 Oct - 21:34:09 10° WNW 21:36:38 15° WSW 21:39:08 10° SW daylight
22 Oct - 10:23:41 10° S 10:28:39 46° ESE 10:33:14 10° NE visible
22 Oct - 12:07:26 10° WSW 12:11:21 22° NW 12:15:04 10° N visible
22 Oct - 19:08:13 10° N 19:11:51 26° NE 19:15:32 10° ESE daylight
22 Oct - 20:50:37 10° NW 20:54:20 29° WSW 20:58:08 10° S daylight
23 Oct - 09:42:02 10° SSE 09:46:16 26° ESE 09:50:14 10° NE visible
23 Oct - 11:23:56 10° WSW 11:28:40 37° NW 11:33:02 10° NNE visible
23 Oct - 18:26:28 10° N 18:29:05 15° NE 18:31:41 10° E daylight
23 Oct - 20:07:43 10° NW 20:11:57 57° WSW 20:16:17 10° SSE daylight
24 Oct - 09:01:20 10° SE 09:03:57 14° ESE 09:06:28 10° ENE visible
24 Oct - 10:40:57 10° SW 10:46:04 66° WNW 10:50:45 10° NNE visible
24 Oct - 19:25:10 10° NNW 19:29:28 73° ENE 19:33:53 10° SE daylight
